sat.trackr.live / text

‹ back to catalog

STARLINK-36070

NORAD 66864 · 2025-281S

PAYLOAD ACTIVE UNKNOWN

§ Identity

Operator
Country
US
Launch date
2025-12-02
Launch site
AFETR
Launch vehicle
Mass (kg)
RCS (m²)

Purposes: comms

External: N2YO · Heavens-Above · Gunter

§ Orbital elements

Epoch: 2026-09-20T20:59:46.920768Z

Period
94.27 min
Inclination
43.0011°
Eccentricity
0.0001504
Mean motion
15.27582366 rev/d
Perigee alt
482.0 km
Apogee alt
484.1 km
Semi-major
6,861.2 km
B*
4.6569e-4
RAAN
321.4244°
Arg perigee
267.9171°
Mean anomaly
92.1508°
Rev number
4,603

§ Raw data

STARLINK-360701 66864U 25281S   26263.87484862  .00012575  00000+0  46569-3 0  99962 66864  43.0011 321.4244 0001504 267.9171  92.1508 15.27582366 46037

JSON: /api/v1/satellites/66864 · /tle

For live sub-satellite position, see the globe view (requires WebGL).

§ Visibility from observer

Set your observer location to see the next 7 days of passes ≥ 10°. The values pass through the URL so the page stays shareable.

No JS? Fill the form by hand. The geolocation button needs JavaScript.